Time,TemperatureF,DewpointF,PressureIn,WindDirection,WindDirectionDegrees,WindSpeedMPH,WindSpeedGustMPH,Humidity,HourlyPrecipIn,Conditions,Clouds,dailyrainin,SoftwareType,DateUTC
2013-07-12 00:02:00,73.0,61.0,29.89,SSE,158,6.0,10.0,66,0.00,,,0.00,,2013-07-12 05:02:00,
2013-07-12 00:11:00,73.0,61.0,29.89,SE,144,6.0,11.0,66,0.00,,,0.00,,2013-07-12 05:11:00,
2013-07-12 00:22:00,73.0,61.0,29.89,SE,144,6.0,11.0,66,0.00,,,0.00,,2013-07-12 05:22:00,
2013-07-12 00:32:00,73.0,61.0,29.90,SSW,194,6.0,10.0,66,0.00,,,0.00,,2013-07-12 05:32:00,
2013-07-12 00:53:00,73.0,61.0,29.90,SSE,150,6.0,11.0,66,0.00,,,0.00,,2013-07-12 05:53:00,
2013-07-12 01:01:00,73.0,61.0,29.90,SSE,155,6.0,10.0,67,0.00,,,0.00,,2013-07-12 06:01:00,
2013-07-12 01:11:00,72.0,60.0,29.90,SSE,149,4.0,8.0,67,0.00,,,0.00,,2013-07-12 06:11:00,
2013-07-12 01:22:00,72.0,60.0,29.90,SSE,149,4.0,8.0,67,0.00,,,0.00,,2013-07-12 06:22:00,
2013-07-12 01:33:00,72.0,61.0,29.90,SSE,148,6.0,9.0,68,0.00,,,0.00,,2013-07-12 06:33:00,
2013-07-12 01:52:00,71.0,60.0,29.89,SSE,166,5.0,9.0,69,0.00,,,0.00,,2013-07-12 06:52:00,
2013-07-12 02:02:00,71.0,60.0,29.89,SSE,153,6.0,11.0,69,0.00,,,0.00,,2013-07-12 07:02:00,
2013-07-12 02:12:00,71.0,60.0,29.89,SSE,167,6.0,10.0,69,0.00,,,0.00,,2013-07-12 07:12:00,
2013-07-12 02:22:00,71.0,60.0,29.89,SSE,167,6.0,10.0,69,0.00,,,0.00,,2013-07-12 07:22:00,
2013-07-12 02:32:00,71.0,61.0,29.89,SSE,157,7.0,11.0,70,0.00,,,0.00,,2013-07-12 07:32:00,
2013-07-12 02:43:00,70.0,60.0,29.89,SSE,151,7.0,12.0,70,0.00,,,0.00,,2013-07-12 07:43:00,
2013-07-12 02:52:00,70.0,60.0,29.89,SSE,151,7.0,12.0,70,0.00,,,0.00,,2013-07-12 07:52:00,
2013-07-12 03:01:00,70.0,60.0,29.89,SSE,157,5.0,10.0,71,0.00,,,0.00,,2013-07-12 08:01:00,
2013-07-12 03:21:00,70.0,61.0,29.89,SSE,157,5.0,9.0,72,0.00,,,0.00,,2013-07-12 08:21:00,
2013-07-12 03:32:00,69.0,60.0,29.88,SSE,152,5.0,8.0,72,0.00,,,0.00,,2013-07-12 08:32:00,
2013-07-12 03:42:00,69.0,60.0,29.88,SE,146,4.0,8.0,73,0.00,,,0.00,,2013-07-12 08:42:00,
2013-07-12 03:53:00,69.0,60.0,29.88,SE,146,4.0,8.0,73,0.00,,,0.00,,2013-07-12 08:53:00,
2013-07-12 04:02:00,69.0,60.0,29.88,SSE,152,5.0,9.0,74,0.00,,,0.00,,2013-07-12 09:02:00,
2013-07-12 04:12:00,68.0,59.0,29.88,SSE,153,5.0,7.0,74,0.00,,,0.00,,2013-07-12 09:12:00,
2013-07-12 04:22:00,68.0,59.0,29.88,SSE,153,5.0,7.0,74,0.00,,,0.00,,2013-07-12 09:22:00,
2013-07-12 04:32:00,68.0,59.0,29.88,SSE,159,3.0,7.0,74,0.00,,,0.00,,2013-07-12 09:32:00,
2013-07-12 04:42:00,69.0,60.0,29.88,SSE,150,5.0,8.0,73,0.00,,,0.00,,2013-07-12 09:42:00,
2013-07-12 04:52:00,69.0,60.0,29.88,SSE,150,5.0,8.0,73,0.00,,,0.00,,2013-07-12 09:52:00,
2013-07-12 05:01:00,69.0,60.0,29.88,SSE,165,7.0,10.0,73,0.00,,,0.00,,2013-07-12 10:01:00,
2013-07-12 05:11:00,69.0,60.0,29.88,SSE,159,7.0,10.0,72,0.00,,,0.00,,2013-07-12 10:11:00,
2013-07-12 05:22:00,69.0,60.0,29.88,SSE,159,7.0,10.0,72,0.00,,,0.00,,2013-07-12 10:22:00,
2013-07-12 05:33:00,70.0,60.0,29.88,SE,145,6.0,12.0,71,0.00,,,0.00,,2013-07-12 10:33:00,
2013-07-12 05:42:00,70.0,60.0,29.88,South,175,6.0,11.0,71,0.00,,,0.00,,2013-07-12 10:42:00,
2013-07-12 05:52:00,70.0,60.0,29.88,South,175,6.0,11.0,71,0.00,,,0.00,,2013-07-12 10:52:00,
2013-07-12 06:02:00,70.0,60.0,29.88,SSE,150,6.0,11.0,71,0.00,,,0.00,,2013-07-12 11:02:00,
2013-07-12 06:11:00,70.0,61.0,29.89,South,178,6.0,10.0,72,0.00,,,0.00,,2013-07-12 11:11:00,
2013-07-12 06:22:00,70.0,61.0,29.89,South,178,6.0,10.0,72,0.00,,,0.00,,2013-07-12 11:22:00,
2013-07-12 06:32:00,69.0,60.0,29.88,SSE,153,6.0,9.0,73,0.00,,,0.00,,2013-07-12 11:32:00,
2013-07-12 06:43:00,70.0,61.0,29.88,SSE,156,8.0,13.0,73,0.00,,,0.00,,2013-07-12 11:43:00,
2013-07-12 06:52:00,70.0,61.0,29.88,SSE,156,8.0,13.0,73,0.00,,,0.00,,2013-07-12 11:52:00,
2013-07-12 07:01:00,70.0,61.0,29.88,SSE,154,8.0,11.0,73,0.00,,,0.00,,2013-07-12 12:01:00,
2013-07-12 07:11:00,70.0,61.0,29.88,SE,146,6.0,12.0,74,0.00,,,0.00,,2013-07-12 12:11:00,
2013-07-12 07:22:00,70.0,61.0,29.88,SE,146,6.0,12.0,74,0.00,,,0.00,,2013-07-12 12:22:00,
2013-07-12 07:32:00,70.0,61.0,29.89,SSE,152,7.0,11.0,74,0.00,,,0.00,,2013-07-12 12:32:00,
2013-07-12 07:43:00,71.0,62.0,29.88,SSE,157,6.0,11.0,74,0.00,,,0.00,,2013-07-12 12:43:00,
2013-07-12 07:52:00,71.0,62.0,29.88,SSE,157,6.0,11.0,74,0.00,,,0.00,,2013-07-12 12:52:00,
2013-07-12 08:01:00,71.0,62.0,29.88,South,170,9.0,14.0,73,0.00,,,0.00,,2013-07-12 13:01:00,
2013-07-12 08:12:00,72.0,63.0,29.88,SSE,156,9.0,14.0,73,0.00,,,0.00,,2013-07-12 13:12:00,
2013-07-12 08:22:00,72.0,63.0,29.88,SSE,156,9.0,14.0,73,0.00,,,0.00,,2013-07-12 13:22:00,
2013-07-12 08:32:00,72.0,63.0,29.88,SSE,155,7.0,12.0,73,0.00,,,0.00,,2013-07-12 13:32:00,
2013-07-12 08:43:00,74.0,64.0,29.88,SSE,164,9.0,15.0,71,0.00,,,0.00,,2013-07-12 13:43:00,
2013-07-12 08:53:00,74.0,64.0,29.88,SSE,164,9.0,15.0,71,0.00,,,0.00,,2013-07-12 13:53:00,
2013-07-12 09:02:00,75.0,64.0,29.88,South,169,8.0,15.0,69,0.00,,,0.00,,2013-07-12 14:02:00,
2013-07-12 09:22:00,76.0,65.0,29.88,SSE,155,9.0,15.0,68,0.00,,,0.00,,2013-07-12 14:22:00,
2013-07-12 09:32:00,77.0,65.0,29.88,SE,140,10.0,17.0,66,0.00,,,0.00,,2013-07-12 14:32:00,
2013-07-12 09:43:00,78.0,65.0,29.88,SSE,150,10.0,14.0,64,0.00,,,0.00,,2013-07-12 14:43:00,
2013-07-12 09:53:00,78.0,65.0,29.88,SSE,150,10.0,14.0,64,0.00,,,0.00,,2013-07-12 14:53:00,
2013-07-12 10:01:00,79.0,65.0,29.88,South,171,10.0,14.0,63,0.00,,,0.00,,2013-07-12 15:01:00,
2013-07-12 10:11:00,79.0,66.0,29.88,SE,146,9.0,16.0,64,0.00,,,0.00,,2013-07-12 15:11:00,
2013-07-12 10:22:00,79.0,66.0,29.88,SE,146,9.0,16.0,64,0.00,,,0.00,,2013-07-12 15:22:00,
2013-07-12 10:33:00,80.0,66.0,29.88,SSE,157,10.0,17.0,63,0.00,,,0.00,,2013-07-12 15:33:00,
2013-07-12 10:43:00,81.0,67.0,29.88,SSE,156,8.0,15.0,63,0.00,,,0.00,,2013-07-12 15:43:00,
2013-07-12 10:52:00,81.0,67.0,29.88,SSE,156,8.0,15.0,63,0.00,,,0.00,,2013-07-12 15:52:00,
2013-07-12 11:01:00,83.0,68.0,29.87,SSE,154,6.0,14.0,61,0.00,,,0.00,,2013-07-12 16:01:00,
2013-07-12 11:11:00,83.0,68.0,29.87,South,180,10.0,14.0,60,0.00,,,0.00,,2013-07-12 16:11:00,
2013-07-12 11:22:00,83.0,68.0,29.87,South,180,10.0,14.0,60,0.00,,,0.00,,2013-07-12 16:22:00,
2013-07-12 11:32:00,84.0,69.0,29.87,South,174,8.0,14.0,61,0.00,,,0.00,,2013-07-12 16:32:00,
2013-07-12 11:42:00,85.0,70.0,29.87,SSE,157,9.0,16.0,60,0.00,,,0.00,,2013-07-12 16:42:00,
2013-07-12 11:56:00,85.0,70.0,29.87,SSE,157,9.0,16.0,60,0.00,,,0.00,,2013-07-12 16:56:00,
2013-07-12 12:05:00,86.0,70.0,29.87,South,169,8.0,15.0,60,0.00,,,0.00,,2013-07-12 17:05:00,
2013-07-12 12:12:00,87.0,71.0,29.86,SSE,160,8.0,15.0,59,0.00,,,0.00,,2013-07-12 17:12:00,
2013-07-12 12:23:00,87.0,71.0,29.86,SSE,160,8.0,15.0,59,0.00,,,0.00,,2013-07-12 17:23:00,
2013-07-12 12:35:00,88.0,71.0,29.86,SSE,149,9.0,16.0,58,0.00,,,0.00,,2013-07-12 17:35:00,
2013-07-12 12:44:00,88.0,71.0,29.85,SE,144,10.0,17.0,57,0.00,,,0.00,,2013-07-12 17:44:00,
2013-07-12 12:53:00,88.0,71.0,29.85,SE,144,10.0,17.0,57,0.00,,,0.00,,2013-07-12 17:53:00,
2013-07-12 13:05:00,89.0,72.0,29.85,SSE,161,11.0,17.0,57,0.00,,,0.00,,2013-07-12 18:05:00,
2013-07-12 13:13:00,90.0,73.0,29.84,SSE,157,9.0,16.0,57,0.00,,,0.00,,2013-07-12 18:13:00,
2013-07-12 13:34:00,90.0,71.0,29.84,South,178,7.0,15.0,54,0.00,,,0.00,,2013-07-12 18:34:00,
2013-07-12 13:54:00,91.0,71.0,29.84,SSW,199,7.0,14.0,53,0.00,,,0.00,,2013-07-12 18:54:00,
2013-07-12 14:04:00,91.0,73.0,29.84,SSE,158,7.0,16.0,55,0.00,,,0.00,,2013-07-12 19:04:00,
2013-07-12 14:14:00,92.0,72.0,29.83,SSE,148,8.0,16.0,53,0.00,,,0.00,,2013-07-12 19:14:00,
2013-07-12 14:22:00,92.0,72.0,29.83,SSE,148,8.0,16.0,53,0.00,,,0.00,,2013-07-12 19:22:00,
2013-07-12 14:33:00,92.0,73.0,29.83,SSE,150,6.0,15.0,54,0.00,,,0.00,,2013-07-12 19:33:00,
2013-07-12 14:44:00,92.0,71.0,29.82,SSE,155,7.0,19.0,51,0.00,,,0.00,,2013-07-12 19:44:00,
2013-07-12 14:54:00,92.0,71.0,29.82,SSE,155,7.0,19.0,51,0.00,,,0.00,,2013-07-12 19:54:00,
2013-07-12 15:02:00,93.0,73.0,29.82,South,174,7.0,15.0,53,0.00,,,0.00,,2013-07-12 20:02:00,
2013-07-12 15:13:00,93.0,73.0,29.82,South,186,8.0,13.0,53,0.00,,,0.00,,2013-07-12 20:13:00,
2013-07-12 15:23:00,93.0,73.0,29.82,South,186,8.0,13.0,53,0.00,,,0.00,,2013-07-12 20:23:00,
2013-07-12 15:33:00,93.0,73.0,29.81,South,172,7.0,16.0,52,0.00,,,0.00,,2013-07-12 20:33:00,
2013-07-12 15:43:00,93.0,74.0,29.81,SSE,150,7.0,14.0,54,0.00,,,0.00,,2013-07-12 20:43:00,
2013-07-12 15:54:00,93.0,74.0,29.81,SSE,150,7.0,14.0,54,0.00,,,0.00,,2013-07-12 20:54:00,
2013-07-12 16:02:00,93.0,73.0,29.81,SSE,152,7.0,20.0,53,0.00,,,0.00,,2013-07-12 21:02:00,
2013-07-12 16:14:00,94.0,74.0,29.82,SSE,154,7.0,15.0,52,0.00,,,0.00,,2013-07-12 21:14:00,
2013-07-12 16:24:00,94.0,74.0,29.82,SSE,154,7.0,15.0,52,0.00,,,0.00,,2013-07-12 21:24:00,
2013-07-12 16:34:00,93.0,73.0,29.82,SSW,192,9.0,17.0,52,0.00,,,0.00,,2013-07-12 21:34:00,
2013-07-12 16:44:00,93.0,73.0,29.81,SSE,150,11.0,19.0,53,0.00,,,0.00,,2013-07-12 21:44:00,
2013-07-12 16:54:00,93.0,73.0,29.81,SSE,150,11.0,19.0,53,0.00,,,0.00,,2013-07-12 21:54:00,
2013-07-12 17:03:00,93.0,73.0,29.82,SSW,195,7.0,16.0,53,0.00,,,0.00,,2013-07-12 22:03:00,
2013-07-12 17:14:00,93.0,74.0,29.81,SSE,155,10.0,18.0,54,0.00,,,0.00,,2013-07-12 22:14:00,
2013-07-12 17:22:00,93.0,74.0,29.81,SSE,155,10.0,18.0,54,0.00,,,0.00,,2013-07-12 22:22:00,
2013-07-12 17:33:00,93.0,74.0,29.80,SSE,166,7.0,15.0,55,0.00,,,0.00,,2013-07-12 22:33:00,
2013-07-12 17:44:00,93.0,73.0,29.80,South,180,6.0,14.0,53,0.00,,,0.00,,2013-07-12 22:44:00,
2013-07-12 17:53:00,93.0,73.0,29.80,South,180,6.0,14.0,53,0.00,,,0.00,,2013-07-12 22:53:00,
2013-07-12 18:03:00,93.0,74.0,29.80,SE,143,12.0,17.0,54,0.00,,,0.00,,2013-07-12 23:03:00,
2013-07-12 18:12:00,92.0,73.0,29.80,SSE,167,10.0,19.0,55,0.00,,,0.00,,2013-07-12 23:12:00,
2013-07-12 18:23:00,92.0,73.0,29.80,SSE,167,10.0,19.0,55,0.00,,,0.00,,2013-07-12 23:23:00,
2013-07-12 18:33:00,92.0,73.0,29.80,SE,145,9.0,16.0,55,0.00,,,0.00,,2013-07-12 23:33:00,
2013-07-12 18:42:00,92.0,73.0,29.79,SSE,157,9.0,18.0,55,0.00,,,0.00,,2013-07-12 23:42:00,
2013-07-12 18:53:00,92.0,73.0,29.79,SSE,157,9.0,18.0,55,0.00,,,0.00,,2013-07-12 23:53:00,
2013-07-12 19:04:00,91.0,73.0,29.79,SSE,151,10.0,16.0,56,0.00,,,0.00,,2013-07-13 00:04:00,
2013-07-12 19:15:00,91.0,73.0,29.78,SE,142,11.0,20.0,56,0.00,,,0.00,,2013-07-13 00:15:00,
2013-07-12 19:24:00,91.0,73.0,29.78,SE,142,11.0,20.0,56,0.00,,,0.00,,2013-07-13 00:24:00,
2013-07-12 19:33:00,90.0,73.0,29.78,SSE,160,10.0,15.0,57,0.00,,,0.00,,2013-07-13 00:33:00,
2013-07-12 19:45:00,90.0,73.0,29.78,SSE,160,10.0,15.0,57,0.00,,,0.00,,2013-07-13 00:45:00,
2013-07-12 19:54:00,90.0,73.0,29.79,SSE,155,10.0,16.0,58,0.00,,,0.00,,2013-07-13 00:54:00,
2013-07-12 20:02:00,90.0,73.0,29.79,SSE,155,10.0,16.0,58,0.00,,,0.00,,2013-07-13 01:02:00,
2013-07-12 20:11:00,89.0,73.0,29.79,South,182,9.0,15.0,59,0.00,,,0.00,,2013-07-13 01:11:00,
2013-07-12 20:24:00,89.0,73.0,29.79,South,182,9.0,15.0,59,0.00,,,0.00,,2013-07-13 01:24:00,
2013-07-12 20:46:00,88.0,73.0,29.79,SE,138,8.0,18.0,61,0.00,,,0.00,,2013-07-13 01:46:00,
2013-07-12 20:54:00,88.0,73.0,29.79,SE,138,8.0,18.0,61,0.00,,,0.00,,2013-07-13 01:54:00,
2013-07-12 21:04:00,86.0,71.0,29.79,SSW,195,9.0,14.0,62,0.00,,,0.00,,2013-07-13 02:04:00,
2013-07-12 21:14:00,86.0,71.0,29.79,SSW,195,9.0,14.0,62,0.00,,,0.00,,2013-07-13 02:14:00,
2013-07-12 21:22:00,86.0,71.0,29.79,SSW,195,9.0,14.0,62,0.00,,,0.00,,2013-07-13 02:22:00,
2013-07-12 21:35:00,85.0,71.0,29.79,South,178,8.0,16.0,63,0.00,,,0.00,,2013-07-13 02:35:00,
2013-07-12 21:45:00,85.0,71.0,29.79,South,169,8.0,14.0,64,0.00,,,0.00,,2013-07-13 02:45:00,
2013-07-12 21:55:00,85.0,71.0,29.79,South,169,8.0,14.0,64,0.00,,,0.00,,2013-07-13 02:55:00,
2013-07-12 22:04:00,84.0,71.0,29.80,SSE,155,7.0,13.0,66,0.00,,,0.00,,2013-07-13 03:04:00,
2013-07-12 22:12:00,83.0,71.0,29.80,SSE,156,8.0,13.0,68,0.00,,,0.00,,2013-07-13 03:12:00,
2013-07-12 22:35:00,83.0,71.0,29.81,SSE,167,10.0,16.0,68,0.00,,,0.00,,2013-07-13 03:35:00,
2013-07-12 22:44:00,83.0,72.0,29.81,SSE,158,8.0,14.0,69,0.00,,,0.00,,2013-07-13 03:44:00,
2013-07-12 22:54:00,83.0,72.0,29.81,SSE,158,8.0,14.0,69,0.00,,,0.00,,2013-07-13 03:54:00,
2013-07-12 23:01:00,82.0,71.0,29.82,SSE,161,8.0,13.0,69,0.00,,,0.00,,2013-07-13 04:01:00,
2013-07-12 23:11:00,82.0,71.0,29.82,SSE,162,8.0,13.0,70,0.00,,,0.00,,2013-07-13 04:11:00,
2013-07-12 23:22:00,82.0,71.0,29.82,SSE,162,8.0,13.0,70,0.00,,,0.00,,2013-07-13 04:22:00,
2013-07-12 23:32:00,82.0,71.0,29.82,SSE,148,8.0,13.0,69,0.00,,,0.00,,2013-07-13 04:32:00,
2013-07-12 23:43:00,82.0,71.0,29.82,SSE,150,8.0,13.0,70,0.00,,,0.00,,2013-07-13 04:43:00,
2013-07-12 23:52:00,82.0,71.0,29.82,SSE,150,8.0,13.0,70,0.00,,,0.00,,2013-07-13 04:52:00,